Location: Unspecified
(0.0000°N, 0.0000°E)
Time: 17:19:12
(UTC+00:00)

Courier 1B Rocket - Pass Details

Date: 07 October 2020
Orbit: 921 x 1202 km, 28.2° (Epoch: 27 October)

Event Time Altitude Azimuth Distance (km) Brightness Sun altitude
Rises 10:17:25 0° 308° (NW) 3,541 7.7 66.7°
Reaches altitude 10° 10:20:03 10° 312° (NW) 2,599 7.2 67.4°
Maximum altitude 10:26:09 57° 30° (NNE) 1,084 6.4 68.8°
Drops below altitude 10° 10:32:27 10° 108° (ESE) 2,690 7.8 70.4°
Sets 10:35:13 0° 112° (ESE) 3,674 8.3 71.0°
